Terug naar catalogus

COSMOS 2251 DEB

ActiefLEO
NORAD 35997·DEBRIS·🇷🇺 Russia

Gelanceerd Jun 16, 1993 vanaf Plesetsk Cosmodrome

Loading…

Volgende Passages (komende 24 uur)

TLE

VerouderendSource: Space-Track

Epoch: Sep 10, 2026, 16:00 UTC

1 35997U 93036AWP 26253.66677904  .00001340  00000-0  33413-3 0  9992
2 35997  74.0436  35.2084 0014918  42.3049 317.9260 14.52569035748317

Volg COSMOS 2251 DEB in realtime met AllMySat

Download on the App Store